[[{"header":{"parameterUnit":"m.s-1","parameterCategory":1,"la1":30.2991,"la2":30.254,"lo1":-89.0895,"lo2":-89.0444,"dy":0.0017,"dx":0.0017,"nx":28,"ny":28,"refTime":"2024-10-18T09:00:00:Z","depth":0,"parameterNumber":2,"parameterNumberName":"U-component_of_WINDS"},"data":[0,0,0,0,0,0,0,0,0,0,0,0,0,0,0,0,0,0,0,0,0,0,0,0,0,0,0,0,0,0,0,0,0,0,0,0,0,0,0,0,0,0,0,0,0,0,0,0,0,0,0,0,0,0,0,0,0,0,-4.8061,-4.8062,0,-4.8151,-4.8152,-4.8153,-4.8003,-4.7998,-4.7993,-4.7988,-4.8081,-4.8088,-4.8095,0,0,0,0,0,0,0,0,0,0,0,0,0,-4.7759,-4.7766,-4.8061,-4.8062,-4.8063,-4.8151,-4.8152,-4.8153,-4.8004,-4.7998,-4.7991,-4.7986,-4.8079,-4.8087,-4.8096,0,0,0,0,0,0,0,0,0,0,0,0,0,-4.7874,-4.7768,-4.806,-4.7999,-4.7994,-4.815,-4.8152,-4.8153,-4.8005,-4.7997,-4.799,-4.7983,-4.8076,-4.8086,-4.8097,-4.8318,0,0,-4.813,-4.8135,0,0,0,0,0,0,0,0,-4.7868,-4.7885,-4.8007,-4.8004,-4.7999,-4.8058,-4.808,-4.8209,-4.8007,-4.8001,-4.7988,-4.7979,-4.808,-4.809,-4.8123,-4.8322,-4.8326,-4.8131,-4.8138,-4.8143,-4.8146,0,0,0,0,0,0,0,-4.786,-4.7881,-4.8096,-4.8009,-4.8004,-4.7967,-4.7975,-4.8103,-4.8082,-4.8001,-4.799,-4.8003,-4.8076,-4.8113,-4.8124,-4.8327,-4.8131,-4.8141,-4.8147,-4.8152,-4.8711,-4.8719,0,0,0,0,0,0,-4.7859,-4.7875,-4.8093,-4.8099,-4.7913,-4.7979,-4.7987,-4.8047,-4.808,-4.8078,-4.801,-4.7996,-4.8099,-4.8112,-4.8127,-4.8388,-4.8142,-4.8153,-4.8159,-4.8703,-4.8713,-4.8722,0,0,0,0,0,0,-4.7854,-4.788,-4.809,-4.7984,-4.8008,-4.7992,-4.806,-4.8052,-4.809,-4.8087,-4.8082,-4.8052,-4.8093,-4.8112,-4.8271,-4.8389,-4.8158,-4.8167,-4.8693,-4.8706,-4.8718,-4.8911,0,0,0,0,0,0,-4.7846,-4.7879,-4.7963,-4.7987,-4.8014,-4.8233,-4.8067,-4.806,-4.8109,-4.8092,-4.8125,-4.8124,-4.8088,-4.8256,-4.8282,-4.84,-4.8176,-4.8683,-4.8699,-4.8714,-4.8894,-4.8929,-4.8958,0,0,0,0,0,-4.7835,-4.8014,-4.7968,-4.7995,-4.8119,-4.824,-4.8256,-4.8211,-4.8119,-4.8203,-4.8201,-4.8122,-4.8372,-4.8274,-4.8302,-4.8425,-4.8675,-4.8694,-4.8712,-4.888,-4.8922,-4.8958,0,0,0,0,0,0,-4.8005,-4.8016,-4.7965,-4.8157,-4.8199,-4.8215,-4.8319,-4.8257,-4.8326,-4.8308,-4.825,-4.8259,-4.843,-4.8443,-4.8333,-4.8639,-4.8508,-4.8533,-4.8625,-4.8665,-4.8697,-4.8691,-4.8185,0,0,0,0,0,-4.8064,-4.8162,-4.8166,-4.8335,-4.8359,-4.8336,-4.8387,-4.835,-4.839,-4.8408,-4.8417,-4.846,-4.8548,-4.8607,-4.8687,-4.8895,-4.89,-4.8993,-4.9025,-4.9051,-4.9074,-4.9185,-4.9227,-4.8784,-4.8784,-4.8783,0,0,-4.8188,-4.8207,-4.8272,-4.837,-4.8398,-4.85,-4.8352,-4.8467,-4.8542,-4.8425,-4.8576,-4.8585,-4.8629,-4.8814,-4.8895,-4.8829,-4.9198,-4.9075,-4.9096,-4.9105,-4.9209,-4.9251,-4.9288,-4.8797,-4.8794,-4.8792,0,0,-4.8467,-4.8491,-4.8634,-4.8665,-4.8709,-4.8692,-4.8727,-4.8753,-4.8754,-4.8904,-4.8818,-4.8907,-4.906,-4.9095,-4.9133,-4.9425,-4.9355,-4.9452,-4.962,-4.9729,-4.9764,-4.9794,-4.9899,-4.9937,-4.9475,-4.9475,-4.9476,0,-4.8616,-4.8768,-4.8716,-4.8837,-4.8883,-4.878,-4.8925,-4.8957,-4.9026,-4.906,-4.8985,-4.9174,-4.9196,-4.9388,-4.9459,-4.9493,-4.9531,-4.9449,-4.9763,-4.9793,-4.9821,-4.992,-4.996,-4.9487,-4.9486,-4.9484,-4.9483,0,-4.8949,-4.9055,-4.9165,-4.9234,-4.9292,-4.9424,-4.9393,-4.9457,-4.9415,-4.9406,-4.9561,-4.9584,-4.9668,-4.971,-4.9669,-4.9896,-4.9854,-4.9772,-4.9639,-4.9876,-4.9968,-5.0006,-4.9504,-4.9499,-4.9496,-4.9493,0,0,-4.9338,-4.9376,-4.9417,-4.9447,-4.9488,-4.9569,-4.9697,-4.9778,-4.9835,-4.9885,-4.9991,-5.0122,-5.0047,-5.009,-5.0052,-5.0147,-5.0378,-5.0053,-5.0053,-5.0114,-5.063,-5.0692,-5.0737,-5.0331,-5.0338,-5.0344,-5.0626,0,-4.9616,-4.9836,-4.9793,-5.0009,-5.0106,-5.001,-5.0121,-5.0159,-5.0154,-5.0236,-5.023,-5.0324,-5.0217,-5.0243,-5.0332,-5.0331,-5.0481,-5.031,-5.043,-5.0435,-5.0423,-5.0785,-5.0851,-5.1116,-5.0662,-5.0668,-5.0672,0,-4.997,-5.0034,-5.0259,-5.0284,-5.0323,-5.0424,-5.0495,-5.0575,-5.0615,-5.0605,-5.0653,-5.0597,-5.0724,-5.0588,-5.0762,-5.0647,-5.0693,-5.07,-5.0709,-5.072,-5.0569,-5.0806,-5.1199,-5.124,-5.0728,-5.0724,-5.072,0,-5.0233,-5.0374,-5.0527,-5.0556,-5.0589,-5.0662,-5.0679,-5.0711,-5.0763,-5.0825,-5.0858,-5.0934,-5.0977,-5.1037,-5.1003,-5.0907,-5.1184,-5.1045,-5.1179,-5.1181,-5.1243,-5.124,-5.1651,-5.1272,-5.1271,-5.127,-5.127,0,-5.0548,-5.069,-5.0646,-5.074,-5.0896,-5.0845,-5.1001,-5.1006,-5.1036,-5.113,-5.1051,-5.1141,-5.109,-5.1176,-5.115,-5.1299,-5.1318,-5.1314,-5.1305,-5.1322,-5.1322,-5.1352,-5.1333,-5.1281,-5.1279,-5.1276,-5.1275,0,-5.0868,-5.0844,-5.1005,-5.1022,-5.103,-5.1145,-5.1159,-5.1248,-5.1236,-5.1356,-5.1381,-5.1364,-5.1461,-5.1433,-5.1538,-5.1521,-5.1709,-5.1677,-5.1696,-5.1688,-5.1825,-5.1813,-5.227,-5.2328,-5.1911,-5.1915,-5.1918,0,-5.1072,-5.1178,-5.1208,-5.1265,-5.1288,-5.1381,-5.1433,-5.1386,-5.1444,-5.1498,-5.158,-5.1669,-5.1739,-5.1898,-5.1896,-5.1976,-5.1945,-5.21,-5.1957,-5.197,-5.1948,-5.1943,-5.1953,-5.2129,-5.2134,-5.2137,-5.2141,0,-5.1436,-5.1418,-5.1497,-5.1572,-5.1636,-5.1693,-5.1742,-5.1793,-5.175,-5.1819,-5.1917,-5.1971,-5.2078,-5.2169,-5.2241,-5.2258,-5.2194,-5.2185,-5.2221,-5.2239,-5.2246,-5.2245,-5.1775,-5.2175,-5.2172,-5.2169,-5.2168,-5.2166,-5.1704,-5.1794,-5.1829,-5.1919,-5.1951,-5.1999,-5.2083,-5.2082,-5.2163,-5.2246,-5.2214,-5.2327,-5.2364,-5.2454,-5.2481,-5.2569,-5.251,-5.2561,-5.2574,-5.2588,-5.2606,-5.2232,-5.2582,-5.2581,-5.258,-5.2579,-5.2578,0,-5.2064,-5.2082,-5.2165,-5.2236,-5.2308,-5.2239,-5.229,-5.2354,-5.2454,-5.2494,-5.2564,-5.2677,-5.2764,-5.2768,-5.285,-5.2919,-5.2892,-5.2942,-5.2937,-5.2943,-5.2653,-5.2615,-5.2964,-5.2964,-5.2963,-5.2963,-5.2963,-5.2963,-5.226,-5.241,-5.2397,-5.2562,-5.2578,-5.2688,-5.2723,-5.2767,-5.2798,-5.2928,-5.3,-5.3002,-5.3027,-5.311,-5.3187,-5.3186,-5.322,-5.3283,-5.3271,-5.3001,-5.2963,-5.2926,-5.289,-5.3291,-5.3291,-5.3552,-5.3555,-5.3557]},{"header":{"parameterUnit":"m.s-1","parameterCategory":1,"la1":30.2991,"la2":30.254,"lo1":-89.0895,"lo2":-89.0444,"dy":0.0017,"dx":0.0017,"nx":28,"ny":28,"refTime":"2024-10-18T09:00:00:Z","depth":0,"parameterNumber":3,"parameterNumberName":"V-component_of_WINDS"},"data":[0,0,0,0,0,0,0,0,0,0,0,0,0,0,0,0,0,0,0,0,0,0,0,0,0,0,0,0,0,0,0,0,0,0,0,0,0,0,0,0,0,0,0,0,0,0,0,0,0,0,0,0,0,0,0,0,0,0,-3.6943,-3.6943,0,-3.6939,-3.6939,-3.6939,-3.6882,-3.6881,-3.688,-3.6878,-3.6873,-3.6874,-3.6875,0,0,0,0,0,0,0,0,0,0,0,0,0,-3.69,-3.6901,-3.6943,-3.6943,-3.6943,-3.6939,-3.6939,-3.6939,-3.6883,-3.6881,-3.6879,-3.6878,-3.6872,-3.6874,-3.6875,0,0,0,0,0,0,0,0,0,0,0,0,0,-3.691,-3.6902,-3.6943,-3.6915,-3.6912,-3.6939,-3.6939,-3.6939,-3.6883,-3.6881,-3.6879,-3.6877,-3.6872,-3.6874,-3.6875,-3.6929,0,0,-3.6881,-3.6882,0,0,0,0,0,0,0,0,-3.6909,-3.6911,-3.6919,-3.6917,-3.6914,-3.6909,-3.6922,-3.6935,-3.6884,-3.6894,-3.6878,-3.6876,-3.6887,-3.6887,-3.6891,-3.6929,-3.6928,-3.6881,-3.6882,-3.6883,-3.6883,0,0,0,0,0,0,0,-3.6909,-3.6911,-3.6941,-3.6919,-3.6916,-3.6901,-3.69,-3.6924,-3.6902,-3.6893,-3.6889,-3.6889,-3.6885,-3.6889,-3.689,-3.6928,-3.6881,-3.6883,-3.6884,-3.6884,-3.7007,-3.7009,0,0,0,0,0,0,-3.6912,-3.6911,-3.6941,-3.6941,-3.6906,-3.6904,-3.6903,-3.6913,-3.6902,-3.6898,-3.6891,-3.6887,-3.6887,-3.6888,-3.689,-3.695,-3.6883,-3.6884,-3.6885,-3.7004,-3.7007,-3.7009,0,0,0,0,0,0,-3.6912,-3.6916,-3.6942,-3.6925,-3.6927,-3.6907,-3.6919,-3.6914,-3.6918,-3.69,-3.6896,-3.69,-3.6886,-3.6887,-3.6919,-3.6949,-3.6885,-3.6887,-3.7002,-3.7005,-3.7008,-3.7071,0,0,0,0,0,0,-3.6911,-3.6916,-3.6937,-3.6926,-3.6928,-3.6972,-3.692,-3.6915,-3.6921,-3.6916,-3.6907,-3.6904,-3.6884,-3.6917,-3.6921,-3.695,-3.6888,-3.6999,-3.7003,-3.7007,-3.7066,-3.7076,-3.7084,0,0,0,0,0,-3.6909,-3.6955,-3.6938,-3.6942,-3.6954,-3.6974,-3.6975,-3.6952,-3.6924,-3.6944,-3.6932,-3.6904,-3.6945,-3.692,-3.6925,-3.6955,-3.6997,-3.7002,-3.7007,-3.7062,-3.7074,-3.7084,0,0,0,0,0,0,-3.697,-3.6953,-3.6934,-3.6978,-3.6978,-3.6964,-3.6989,-3.6966,-3.6973,-3.6967,-3.6937,-3.6936,-3.6971,-3.6966,-3.6939,-3.7004,-3.6966,-3.6972,-3.7006,-3.7018,-3.7027,-3.7027,-3.689,0,0,0,0,0,-3.6989,-3.7007,-3.699,-3.7031,-3.7031,-3.701,-3.7018,-3.7,-3.6998,-3.6998,-3.6988,-3.6988,-3.7,-3.7009,-3.7019,-3.7065,-3.7061,-3.7088,-3.7097,-3.7104,-3.711,-3.7131,-3.7142,-3.7026,-3.7026,-3.7025,0,0,-3.7027,-3.702,-3.7033,-3.7042,-3.704,-3.7058,-3.7011,-3.7033,-3.7045,-3.7001,-3.703,-3.7023,-3.702,-3.7058,-3.7075,-3.7055,-3.7141,-3.7111,-3.7117,-3.7118,-3.7137,-3.7148,-3.7158,-3.7029,-3.7028,-3.7028,0,0,-3.7106,-3.7103,-3.7135,-3.7133,-3.713,-3.7115,-3.7123,-3.7113,-3.7106,-3.7135,-3.7101,-3.7115,-3.7138,-3.7136,-3.7138,-3.7214,-3.7187,-3.7218,-3.7265,-3.7287,-3.7296,-3.7304,-3.7329,-3.7338,-3.7223,-3.7224,-3.7224,0,-3.7154,-3.718,-3.7154,-3.7177,-3.7181,-3.7142,-3.7173,-3.7172,-3.7173,-3.7176,-3.7154,-3.7179,-3.7175,-3.7211,-3.7229,-3.7233,-3.7239,-3.7219,-3.7297,-3.7305,-3.7312,-3.7335,-3.7345,-3.7227,-3.7227,-3.7226,-3.7226,0,-3.7238,-3.7257,-3.7283,-3.7284,-3.7291,-3.7318,-3.7294,-3.7305,-3.7285,-3.7272,-3.73,-3.7293,-3.73,-3.7308,-3.729,-3.7341,-3.7328,-3.7302,-3.7263,-3.7327,-3.7348,-3.7357,-3.7232,-3.7231,-3.723,-3.7229,0,0,-3.7357,-3.7341,-3.735,-3.7349,-3.7341,-3.7355,-3.7379,-3.7386,-3.7394,-3.7395,-3.7414,-3.7433,-3.7407,-3.741,-3.7391,-3.741,-3.7467,-3.7381,-3.738,-3.7396,-3.7521,-3.754,-3.7551,-3.745,-3.7452,-3.7453,-3.7521,0,-3.7431,-3.7472,-3.7448,-3.7492,-3.7507,-3.7469,-3.7489,-3.7486,-3.7475,-3.7485,-3.7472,-3.7485,-3.7452,-3.7453,-3.747,-3.7457,-3.7492,-3.7452,-3.7465,-3.7466,-3.7466,-3.7562,-3.7583,-3.7647,-3.7529,-3.753,-3.7531,0,-3.7524,-3.7528,-3.7573,-3.756,-3.7565,-3.7585,-3.7587,-3.7599,-3.7594,-3.7584,-3.7585,-3.7561,-3.7582,-3.7544,-3.7572,-3.7545,-3.7549,-3.7543,-3.7545,-3.7544,-3.7502,-3.7563,-3.7667,-3.7677,-3.7545,-3.7544,-3.7543,0,-3.7603,-3.762,-3.7648,-3.7648,-3.7635,-3.7648,-3.7643,-3.7636,-3.7641,-3.7643,-3.7645,-3.7651,-3.7653,-3.7657,-3.7634,-3.7608,-3.7664,-3.7624,-3.7655,-3.7656,-3.7668,-3.7667,-3.7773,-3.7673,-3.7673,-3.7673,-3.7672,0,-3.7688,-3.7717,-3.7683,-3.7701,-3.7731,-3.7702,-3.7733,-3.7724,-3.7717,-3.7731,-3.7698,-3.7712,-3.7681,-3.7691,-3.7673,-3.7698,-3.77,-3.7691,-3.7686,-3.7693,-3.7694,-3.7695,-3.7689,-3.7675,-3.7675,-3.7674,-3.7674,0,-3.7782,-3.7761,-3.7789,-3.7772,-3.7769,-3.7792,-3.7777,-3.7792,-3.7777,-3.7795,-3.7798,-3.7775,-3.7785,-3.7762,-3.7769,-3.7757,-3.7792,-3.778,-3.7793,-3.7789,-3.7821,-3.7818,-3.793,-3.7942,-3.7836,-3.7837,-3.7837,0,-3.7837,-3.7858,-3.7843,-3.785,-3.7846,-3.7858,-3.7862,-3.7834,-3.7839,-3.7834,-3.7849,-3.7856,-3.786,-3.7878,-3.7861,-3.7866,-3.7853,-3.7892,-3.7853,-3.786,-3.7851,-3.785,-3.7851,-3.79,-3.7901,-3.7902,-3.7903,0,-3.7936,-3.7924,-3.7931,-3.7934,-3.794,-3.7941,-3.794,-3.7947,-3.7917,-3.7925,-3.7934,-3.7938,-3.7944,-3.7951,-3.7951,-3.7945,-3.7918,-3.7915,-3.7922,-3.793,-3.7936,-3.7931,-3.7813,-3.7913,-3.7912,-3.7911,-3.791,-3.791,-3.8011,-3.8027,-3.8018,-3.8027,-3.8022,-3.8021,-3.8034,-3.802,-3.8027,-3.803,-3.8013,-3.8026,-3.8018,-3.8015,-3.8012,-3.802,-3.8003,-3.8013,-3.8016,-3.8019,-3.8023,-3.7935,-3.8021,-3.802,-3.802,-3.802,-3.8019,0,-3.8107,-3.8099,-3.8107,-3.8106,-3.8112,-3.8086,-3.8083,-3.809,-3.8101,-3.8096,-3.81,-3.811,-3.8116,-3.8099,-3.8102,-3.8112,-3.81,-3.8114,-3.8113,-3.8111,-3.804,-3.8032,-3.8124,-3.8124,-3.8124,-3.8124,-3.8124,-3.8124,-3.8158,-3.8182,-3.8169,-3.819,-3.8182,-3.8194,-3.8194,-3.8192,-3.8187,-3.8199,-3.8204,-3.8193,-3.8182,-3.8184,-3.8188,-3.8183,-3.8185,-3.8203,-3.8193,-3.8127,-3.8116,-3.8107,-3.81,-3.8204,-3.8204,-3.8264,-3.8264,-3.8265]}]]